User: anonymous   Login
Location: New York
(40.7127°N, 74.0060°W)
Time: 19:15:34
(UTC-04:00)
Language:

XW-2D - Orbit

View from above orbital plane
View from above orbital plane
View from above satellite
View from above satellite

Ground track
Ground track

The orbit data is extracted from the following two-line orbital elements,

1 40907U 15049J   24115.85879159  .00059107  00000-0  12550-2 0  9991
2 40907  97.4770 133.4164 0009885 119.9176 240.3056 15.44781362476459
Epoch (UTC): 24 April 2024 20:36:39
Eccentricity: 0.0009885
inclination: 97.4770°
perigee height: 425 km
apogee height: 439 km
right ascension of ascending node: 133.4164°
argument of perigee: 119.9176°
revolutions per day: 15.44781362
mean anomaly at epoch: 240.3056°
orbit number at epoch: 47645

The dashed part of the orbit path shows where the satellite is in the earth's shadow,  

DLR